Wind_Speed
14 15 16 17 18 19 19 19 19 17 15 14 13 12 11 11 10 10 10 9 10 11 12 13 13 14 15 16 17 17 17 17 17 17 17 17 18 18 19 19 20 20 20 20 19 19 19 19 20 21 21 21 21 22 22 22 23 22 22 20 18 16 16 12 6 11 9 6 14 26 17 14 8 14 24 27 30 28 23 23 23 25 25 24 25 26 28 28
14 15 17 18 19 19 19 19 19 19 17 15 13 12 11 10 9 9 9 10 11 13 14 14 14 15 16 17 18 18 19 18 18 18 17 18 18 18 19 19 20 20 20 21 20 20 20 20 19 19 20 20 21 21 22 23 24 24 23 22 19 17 16 10 4 11 11 7 18 30 20 16 14 17 27 27 29 27 22 23 23 25 24 22 25 27 26 26
14 16 17 18 19 19 20 20 20 20 18 16 14 12 11 10 9 10 10 11 13 14 14 14 15 16 17 18 19 20 20 19 19 19 19 19 19 19 18 18 19 19 20 21 21 21 21 20 20 20 20 20 21 20 21 23 23 24 23 24 20 17 16 10 7 13 16 14 19 33 26 21 24 27 33 30 29 27 20 20 21 23 24 22 24 25 24 22
15 16 18 19 19 19 19 20 21 20 19 17 15 13 11 11 10 10 11 12 13 14 14 15 17 18 18 19 19 20 19 19 19 19 19 19 19 19 18 18 18 18 19 20 21 22 21 22 21 21 21 21 21 20 21 22 22 23 23 24 18 14 12 9 13 16 20 23 20 31 25 22 29 32 35 33 30 27 20 17 18 21 23 22 23 24 24 22
16 17 18 19 19 19 19 21 21 21 19 18 15 13 12 11 11 11 11 12 14 14 15 16 18 18 19 19 19 19 18 18 17 17 18 18 19 19 18 17 17 17 17 18 20 21 21 22 22 22 22 22 23 22 22 22 21 22 23 22 20 21 14 8 21 19 20 28 26 26 19 20 31 31 32 32 30 28 24 22 21 21 22 22 22 23 24 24
16 17 18 18 18 19 20 21 22 22 20 18 16 13 12 12 12 11 12 13 14 15 15 17 17 17 17 17 17 16 15 15 15 15 16 17 18 18 18 17 17 17 16 17 18 19 21 21 21 22 22 22 23 23 24 24 24 23 23 20 23 28 20 12 26 26 25 28 23 24 24 28 34 29 28 30 29 28 26 25 25 24 24 24 24 22 23 24
17 18 18 18 18 19 20 22 22 22 21 19 16 14 13 12 12 11 11 12 14 15 16 16 16 16 15 14 14 13 12 12 11 11 12 13 14 15 16 16 17 17 17 17 16 18 18 19 21 21 20 19 18 20 21 24 27 25 24 24 26 29 23 21 29 30 27 23 24 29 30 33 34 29 26 26 27 27 26 25 25 25 24 25 25 24 23 24
17 18 18 18 18 19 20 22 23 23 22 19 16 14 13 12 11 10 11 12 14 15 15 15 15 14 13 12 12 11 10 10 10 10 10 11 11 12 13 14 15 16 16 16 16 16 16 18 20 19 17 11 9 11 12 19 27 27 23 20 27 30 26 29 35 36 29 21 26 30 30 34 34 30 27 25 27 26 25 25 24 24 24 24 25 25 26 26
18 18 18 18 19 19 20 22 23 23 22 19 16 14 13 11 10 10 11 13 13 14 14 13 13 12 11 11 10 10 10 9 10 11 11 11 11 11 11 11 12 13 15 15 16 15 17 19 18 20 19 14 13 10 9 18 23 22 17 12 24 29 27 36 42 38 30 23 26 28 30 34 36 34 32 32 31 28 26 25 25 24 24 25 25 25 25 25
18 18 19 19 19 20 20 22 23 23 22 19 16 14 12 11 10 11 12 13 13 13 13 12 11 10 10 9 9 9 10 10 11 11 11 11 10 10 9 9 9 10 11 13 16 17 19 18 17 19 17 20 22 15 12 18 18 16 17 14 20 24 30 40 41 35 29 27 27 28 33 36 37 36 33 35 34 30 27 26 26 25 25 26 26 27 25 25
18 19 19 19 19 20 20 22 23 23 22 19 16 14 12 11 11 12 12 12 12 12 11 11 10 9 9 9 10 11 11 11 12 11 11 10 9 9 8 8 7 7 8 10 13 15 17 16 15 13 13 18 19 15 17 22 23 18 14 14 16 24 37 37 34 34 30 31 31 31 36 37 35 34 33 35 34 31 29 27 25 25 26 27 27 28 29 29
18 19 19 19 19 20 21 22 23 23 22 18 15 13 12 11 11 12 12 11 11 11 10 10 9 9 9 9 11 11 11 11 12 11 10 9 8 8 8 7 7 7 7 7 8 10 14 15 15 16 18 19 16 17 22 24 28 23 14 14 16 27 37 29 27 34 30 29 33 33 35 35 32 31 34 35 33 32 30 28 26 24 24 25 26 27 29 31
18 18 19 19 20 21 21 22 22 22 21 18 15 13 12 11 12 12 11 11 10 10 9 9 9 8 8 9 11 11 11 11 11 11 9 9 9 8 8 7 8 7 7 7 6 6 9 12 14 17 19 20 19 19 20 23 30 30 23 18 16 22 29 25 24 30 29 25 29 33 30 31 31 30 33 35 33 32 31 29 27 25 24 25 26 28 29 29
18 18 19 19 20 21 21 22 22 21 21 18 15 13 12 11 12 11 11 10 10 9 9 9 8 7 8 9 10 10 11 11 11 10 9 8 8 8 8 8 9 8 7 7 6 5 5 8 12 16 17 18 21 19 16 21 27 31 29 20 13 12 18 23 24 26 27 25 31 30 24 29 30 28 32 33 32 30 29 27 25 25 27 27 26 26 26 26
18 18 19 20 21 21 21 22 21 21 20 17 15 13 12 11 11 11 10 10 9 8 8 8 8 7 7 8 10 10 11 11 10 9 8 8 9 8 8 8 8 8 7 7 6 5 4 5 8 12 14 16 18 17 15 18 18 24 27 23 14 9 14 21 25 25 19 22 34 30 24 31 30 27 28 29 30 29 26 24 23 23 26 28 28 25 25 26
18 19 19 20 21 21 21 21 20 20 19 17 15 13 12 11 11 11 10 9 8 8 7 7 7 6 7 8 9 10 10 11 9 9 9 8 9 8 9 8 7 7 6 6 7 6 4 4 6 7 8 9 13 14 13 13 10 15 16 21 18 13 16 18 19 24 20 19 26 28 32 37 34 30 27 26 28 28 25 23 22 21 23 28 28 26 26 25
18 19 20 20 21 21 22 21 20 19 19 18 15 13 12 11 11 10 10 9 8 8 7 7 6 6 7 7 8 9 9 10 9 9 9 9 9 9 8 7 7 7 6 6 6 6 4 4 3 3 6 5 5 6 6 5 9 13 7 16 19 11 12 14 14 19 25 27 24 24 31 37 38 34 29 27 26 25 26 25 23 20 20 21 21 21 22 23
18 19 20 20 20 21 22 21 19 18 18 18 15 13 12 11 11 10 9 9 8 8 6 6 6 6 7 7 8 9 9 9 9 9 9 8 8 8 8 7 7 7 6 6 6 7 6 5 5 4 7 7 2 3 5 1 7 11 7 14 20 12 8 9 9 13 21 29 29 26 29 38 42 35 32 31 26 26 28 26 24 20 18 17 16 17 18 19
18 19 20 19 20 21 22 21 19 18 18 18 16 14 12 11 10 9 9 8 7 7 5 5 6 7 7 7 8 9 9 9 8 8 7 7 8 8 8 6 5 6 6 7 7 10 9 5 6 6 6 5 2 6 6 1 2 4 8 18 23 16 11 8 4 8 14 19 24 27 32 39 39 33 34 34 30 30 28 25 22 20 20 19 17 16 15 16
18 19 19 19 19 21 21 20 19 18 18 18 16 15 13 11 10 9 9 8 7 6 5 5 6 6 6 6 8 8 8 8 6 7 6 8 9 7 6 5 4 5 6 8 7 10 10 3 3 4 3 2 3 7 7 4 1 3 3 19 24 14 15 15 7 8 10 9 12 21 28 31 29 28 31 33 34 32 27 23 20 19 19 17 16 15 14 15
18 18 19 19 19 20 21 20 19 18 18 18 17 15 13 11 11 9 9 9 8 7 6 5 5 5 5 5 7 8 8 7 5 6 7 8 9 8 6 5 7 5 2 5 5 6 6 3 3 1 1 2 2 4 5 7 6 3 3 13 16 5 9 14 11 9 6 2 2 9 13 14 17 18 20 23 27 25 21 19 17 17 15 14 15 15 15 16
18 18 19 19 19 20 21 20 19 18 18 18 16 15 14 13 12 11 10 9 8 8 6 5 5 5 5 6 6 7 7 6 5 7 8 8 10 9 5 4 6 4 1 2 5 7 3 1 3 2 3 3 4 6 4 5 7 3 3 4 2 5 2 5 4 5 5 7 7 7 5 7 10 10 11 13 15 16 16 16 15 15 13 14 14 15 19 19
18 18 18 19 19 20 21 21 20 18 17 18 16 15 15 14 12 11 11 10 7 7 6 5 5 5 5 5 5 7 8 7 6 8 9 8 9 9 5 2 3 3 2 2 5 7 3 1 4 4 4 2 5 7 3 2 5 3 5 4 3 2 5 4 2 2 3 5 7 5 5 7 7 7 8 9 11 13 13 14 15 15 15 15 16 18 22 23
18 18 18 19 19 20 20 21 20 18 17 17 16 15 15 14 13 11 11 11 7 5 6 5 5 5 4 4 5 6 7 7 7 8 8 8 9 9 7 4 2 2 3 3 5 5 4 4 6 5 4 4 4 3 5 6 1 5 5 3 5 8 6 5 3 1 2 3 2 3 5 6 7 6 7 9 11 13 13 14 15 16 18 19 20 22 24 26
19 19 18 19 20 20 20 21 20 19 17 17 16 15 14 14 14 12 11 11 7 5 6 6 5 6 4 4 4 5 6 6 6 7 7 8 9 9 6 4 3 2 2 5 4 3 5 6 6 5 5 5 4 3 7 9 5 8 9 6 7 9 4 2 4 3 4 4 2 3 6 7 9 7 8 11 12 13 15 16 17 20 20 21 24 24 26 27
19 19 19 19 20 20 20 20 20 19 18 16 16 15 14 14 14 13 11 10 7 6 6 5 5 5 5 4 4 5 5 5 5 6 7 8 9 8 5 4 6 5 1 4 3 2 5 6 5 6 5 4 3 3 6 9 9 8 7 7 6 6 5 6 7 6 5 4 4 5 6 8 10 9 9 11 13 13 15 17 19 21 20 20 23 23 24 25
20 20 20 19 19 20 20 20 20 19 18 16 16 16 15 14 13 13 11 10 8 8 8 6 4 5 5 4 4 5 6 5 5 6 7 9 8 6 5 4 5 5 4 4 3 3 5 5 3 5 3 3 3 3 5 8 7 5 6 8 5 5 8 8 7 6 5 5 7 7 6 8 10 12 14 14 14 14 15 17 20 22 20 19 21 22 22 23
21 21 21 19 19 19 19 19 19 19 18 17 16 16 15 15 14 12 11 10 8 8 9 8 5 6 6 5 4 5 6 6 5 6 8 9 8 6 5 6 3 3 5 6 4 3 5 4 2 3 3 4 3 2 4 7 5 2 4 7 5 6 8 7 6 7 6 7 8 9 10 11 10 13 16 15 14 16 16 18 21 21 20 19 19 20 21 23
22 21 21 20 19 18 18 18 19 19 18 17 17 16 16 15 14 13 10 8 7 7 9 10 8 7 6 6 5 5 6 6 6 7 8 9 8 5 5 7 5 3 5 6 6 6 6 5 2 3 4 4 3 3 4 7 6 4 4 5 5 5 7 8 7 7 9 9 8 11 14 13 11 15 17 14 14 17 18 22 24 22 19 19 19 19 21 23
22 22 22 21 19 18 17 18 18 19 19 18 17 16 16 16 14 12 9 7 8 8 9 10 10 9 7 7 7 6 5 6 7 7 8 8 7 4 4 5 4 3 4 5 7 7 6 5 4 2 4 4 3 3 4 5 5 4 3 5 6 6 6 8 7 8 11 10 11 14 14 12 12 15 18 17 18 20 19 22 23 22 19 18 17 19 22 23
22 22 22 21 19 18 17 17 17 18 18 18 17 16 16 15 13 11 8 7 9 9 9 10 10 10 8 8 9 7 6 6 6 7 7 8 6 3 3 4 2 1 4 5 6 6 6 5 4 3 2 3 2 3 3 5 5 3 4 5 5 5 6 7 6 9 11 10 11 11 10 12 15 16 18 19 20 20 18 20 21 23 25 22 18 18 23 25
22 22 22 20 18 17 17 16 17 18 18 18 17 16 15 13 10 9 9 9 9 9 9 9 9 10 9 9 10 10 8 7 7 7 7 8 7 4 3 4 2 1 2 4 4 5 6 6 4 3 1 1 3 3 2 4 5 4 3 4 5 5 6 6 7 10 11 10 12 12 12 16 17 17 19 20 20 20 19 21 22 26 27 25 23 22 24 27
22 22 22 20 18 17 16 16 17 17 17 17 16 15 13 10 9 10 11 11 11 11 11 10 10 10 11 11 11 10 9 9 8 7 6 7 7 6 3 2 2 1 1 1 2 2 4 5 4 2 1 1 4 4 3 3 5 5 3 4 5 6 7 7 8 11 11 11 13 14 14 15 15 15 17 19 22 22 22 22 24 26 24 26 29 27 26 28
21 22 21 20 18 16 16 16 16 17 17 16 16 14 11 10 10 10 11 11 12 13 12 12 10 10 11 12 11 9 9 9 8 7 7 7 7 5 3 1 2 2 2 2 1 1 3 4 4 1 0 1 3 4 2 2 5 6 4 4 6 7 8 8 9 12 11 10 12 13 12 13 14 13 14 18 21 24 25 24 26 27 25 28 30 28 27 26
21 21 21 21 19 17 16 16 16 17 16 16 15 13 11 10 11 10 11 12 13 13 13 12 11 9 11 12 11 10 11 9 8 8 8 7 6 5 4 4 4 3 3 3 0 0 1 3 3 0 1 2 4 4 4 4 4 5 5 4 5 6 6 7 8 9 9 8 11 12 11 12 14 13 15 17 17 21 25 26 26 25 26 29 28 27 28 24
21 21 21 21 19 17 16 16 16 17 16 15 13 11 10 11 11 12 13 16 16 16 14 12 11 9 9 10 10 10 10 9 8 9 9 8 9 9 7 7 5 4 5 4 2 2 2 0 1 1 2 3 5 5 6 6 4 3 4 4 4 4 4 6 7 7 8 8 9 10 11 13 17 17 16 16 16 19 23 24 24 23 23 26 26 26 26 22
21 20 21 20 18 17 16 15 16 16 15 14 11 10 11 11 12 13 14 16 16 15 13 11 10 8 6 7 10 9 8 10 10 9 11 11 11 10 8 7 7 6 6 6 6 5 4 2 2 2 2 3 5 5 6 6 5 4 3 2 3 4 6 7 8 8 10 9 8 9 9 11 16 18 16 15 15 18 21 23 22 21 21 22 23 23 23 20
20 20 20 19 17 16 15 15 16 16 14 13 10 10 10 10 11 12 12 14 14 10 9 10 9 8 7 8 10 10 6 7 9 9 11 12 11 10 10 9 8 8 8 8 7 6 6 5 4 3 4 4 4 5 5 5 6 7 5 3 3 5 7 8 8 8 10 10 9 8 9 10 14 16 16 16 15 16 20 22 21 20 21 20 19 20 20 18
20 20 19 17 15 15 15 15 16 15 13 12 10 10 10 10 9 10 11 12 12 9 7 9 9 10 10 10 11 10 7 7 9 9 11 13 11 11 12 11 10 9 9 10 9 7 7 8 6 4 5 6 5 5 6 5 6 8 7 7 7 7 8 8 8 8 10 11 10 9 9 11 15 16 16 17 17 16 19 21 20 20 21 20 17 17 17 15
20 19 16 15 15 14 15 15 15 14 12 11 11 10 10 10 9 9 11 12 12 11 9 10 11 12 13 12 12 13 11 11 11 11 11 13 13 13 14 13 11 9 10 11 12 11 9 9 9 7 7 7 6 7 8 8 8 8 9 9 8 9 10 9 9 9 10 11 12 11 10 12 16 17 15 16 17 16 18 20 19 19 20 19 18 16 15 14
19 18 14 14 15 14 14 14 13 13 12 11 11 10 10 12 12 11 12 13 12 12 12 12 12 14 15 15 14 14 12 11 13 14 13 13 16 16 14 12 12 11 12 12 12 12 11 12 11 9 8 8 9 9 9 10 11 10 11 11 9 10 12 11 10 11 12 11 12 13 13 14 17 17 17 18 18 17 19 20 19 19 20 18 18 17 15 14
19 17 13 13 14 13 13 13 12 12 12 11 12 11 11 13 15 14 14 14 14 14 14 13 12 14 16 16 15 14 14 13 14 16 14 14 18 16 10 10 13 13 14 14 13 12 13 14 14 13 12 12 12 10 10 12 13 12 12 12 11 12 13 13 12 13 14 13 13 14 15 15 16 15 15 17 18 19 20 20 19 19 19 19 18 17 16 15
19 17 14 13 14 13 13 13 12 13 13 12 13 13 13 15 17 17 16 16 15 16 16 14 13 13 14 16 17 17 16 14 14 15 15 18 20 15 10 12 14 14 15 16 14 12 13 15 15 15 14 15 15 13 13 14 14 14 14 14 14 14 14 14 14 15 15 15 15 16 16 18 19 16 14 17 19 19 20 20 20 19 19 19 18 17 16 16
20 19 16 16 16 15 15 14 13 14 14 14 14 15 16 16 18 19 19 17 16 16 16 14 14 13 13 16 19 18 15 14 15 16 17 20 19 14 13 14 15 16 16 16 15 14 16 16 15 15 16 16 15 15 16 17 16 16 17 17 16 16 16 16 16 17 18 16 17 18 17 19 21 19 18 20 21 21 21 20 20 19 19 19 18 18 17 16
21 21 19 19 20 19 17 16 15 16 16 16 16 17 18 18 18 18 19 17 17 17 14 13 14 13 13 16 18 17 14 15 16 16 17 19 20 17 15 15 17 17 16 15 16 17 17 17 15 15 17 16 13 13 17 17 15 15 17 18 18 19 19 19 19 20 20 18 19 20 20 21 23 23 23 22 19 20 21 20 19 20 19 18 19 19 18 18
23 23 22 21 21 20 18 17 16 17 19 18 18 18 19 19 18 17 18 17 16 16 14 12 12 12 12 14 15 16 16 16 16 16 17 19 21 18 14 15 18 18 17 18 18 17 18 19 18 17 18 17 16 18 21 19 16 16 17 18 18 19 20 20 21 21 21 21 21 20 21 24 24 24 24 23 21 20 21 21 21 21 19 19 19 20 20 20
24 24 23 22 22 21 19 17 17 18 19 19 18 18 18 18 17 17 17 17 16 14 14 13 12 12 12 11 12 14 16 16 17 17 17 19 21 19 14 14 18 19 20 20 19 18 19 20 20 20 19 18 19 21 23 22 20 21 21 20 20 21 21 22 22 21 23 24 22 21 23 25 24 24 26 28 28 25 23 23 22 22 22 20 20 21 21 20
22 23 22 22 21 20 19 19 18 18 18 18 18 18 18 19 19 17 16 16 15 13 13 13 13 12 11 10 10 12 15 17 18 18 18 19 21 21 18 17 19 20 21 20 19 20 21 20 21 22 21 20 19 20 23 24 23 24 24 24 24 25 25 26 26 24 25 27 24 22 25 26 25 26 27 28 29 27 25 24 24 24 25 24 22 23 22 21
20 20 21 22 21 20 19 19 19 19 19 19 19 19 19 19 20 18 16 15 14 13 12 13 14 13 12 11 10 11 13 14 16 18 19 20 21 21 21 21 20 18 20 21 21 22 22 21 22 23 23 22 21 21 22 24 25 24 24 24 24 25 26 26 26 26 27 28 26 24 26 26 25 27 28 28 28 27 27 26 26 26 26 25 25 25 24 23
18 19 20 21 21 21 20 20 19 20 21 21 21 20 20 19 19 17 15 14 14 13 13 13 14 14 13 13 12 12 12 12 13 16 16 17 19 20 21 23 21 17 19 22 24 23 23 23 23 24 25 23 22 23 24 25 26 24 22 22 23 24 25 24 24 25 26 26 24 25 26 24 24 26 28 28 28 27 26 26 26 25 24 24 25 26 26 26
19 19 19 20 20 20 20 20 20 20 21 22 21 20 19 20 18 16 15 14 13 14 14 13 13 14 14 14 14 14 14 13 14 15 14 15 17 18 19 20 20 19 19 20 22 23 23 24 25 26 27 24 23 25 26 27 28 25 21 21 23 23 24 23 23 23 24 23 23 24 23 22 23 26 27 27 27 26 25 25 25 25 24 24 24 25 25 26
21 20 19 19 19 20 20 20 20 20 21 21 19 19 18 18 17 16 16 15 14 14 15 13 13 14 14 15 15 15 15 16 17 17 17 17 17 18 18 18 20 21 20 20 21 21 22 24 25 27 28 26 24 26 28 30 29 25 22 24 23 23 24 24 23 23 23 23 23 23 22 22 23 25 25 26 26 25 24 24 25 25 24 23 23 24 24 24
Wind_Direction
359 358 358 357 357 357 357 356 355 352 346 339 335 330 324 319 318 317 315 313 313 313 311 308 304 299 296 294 291 289 286 284 283 281 279 276 272 269 265 262 260 257 255 252 250 248 246 245 244 244 242 241 238 236 233 232 232 232 232 231 232 230 231 237 249 265 226 146 273 263 242 228 254 276 254 246 253 256 253 254 262 266 268 269 264 260 260 260
356 356 355 354 354 354 354 354 353 352 349 343 338 335 330 325 322 318 314 312 312 312 310 306 302 299 296 294 292 290 288 287 286 282 280 277 274 271 268 265 261 258 256 253 251 247 246 244 243 243 241 241 239 237 235 234 235 233 234 232 230 231 229 221 219 265 245 191 252 250 230 221 227 255 258 252 256 259 259 259 260 264 269 267 264 262 260 261
354 353 351 351 351 351 352 352 352 351 348 345 340 334 328 322 318 314 311 311 312 311 307 304 301 299 297 295 294 291 290 290 287 284 281 278 275 272 269 267 263 260 257 253 252 248 246 244 242 242 241 240 238 237 236 235 235 232 234 232 228 232 226 211 217 244 229 204 243 245 237 250 252 254 260 262 264 266 268 268 265 266 271 271 271 270 264 263
351 350 348 347 348 349 350 351 352 350 347 345 339 332 324 317 312 309 308 309 312 310 306 304 302 301 300 299 297 296 295 292 289 286 282 279 276 273 270 268 265 262 258 255 252 248 247 244 240 240 239 240 239 236 236 235 235 232 233 231 224 220 215 224 233 230 218 203 226 245 248 265 258 251 256 261 265 268 270 271 275 273 269 269 271 271 266 263
347 346 345 345 345 347 349 350 351 350 347 343 338 332 324 317 310 305 303 306 310 309 306 306 305 305 304 303 302 300 299 295 293 290 286 282 278 275 272 269 266 264 261 257 253 250 247 244 241 240 240 241 242 239 238 238 236 232 231 227 219 208 188 236 242 232 227 216 225 248 254 262 256 250 253 260 263 264 267 269 274 272 270 270 268 266 262 261
344 344 344 344 345 346 348 350 350 349 347 343 338 332 325 320 313 305 301 304 309 309 309 310 310 309 309 309 308 306 307 304 302 298 293 289 283 280 276 271 268 265 262 259 255 251 247 244 242 240 239 240 242 243 239 239 236 231 231 224 222 216 190 210 236 233 238 230 230 246 247 253 257 254 254 261 263 263 266 267 267 265 269 272 270 267 263 262
343 343 344 345 345 345 346 348 349 349 347 343 338 333 328 323 318 310 304 306 310 312 313 314 314 314 315 315 315 317 321 320 318 314 307 301 294 288 282 275 270 264 262 259 255 251 247 244 241 238 239 239 246 251 247 242 237 232 230 225 226 222 204 213 232 237 245 240 232 239 244 253 258 257 260 263 262 262 262 262 264 266 269 271 270 269 268 266
344 344 344 344 344 344 345 347 348 349 348 345 339 335 331 326 321 314 310 312 314 316 318 319 318 320 321 323 327 331 336 338 335 332 324 318 311 304 296 284 275 266 261 257 255 253 245 241 238 235 231 221 235 256 253 239 234 232 229 232 236 225 211 224 238 243 249 245 236 239 245 252 256 259 264 263 260 263 261 259 262 265 267 268 268 270 272 270
344 344 343 343 343 342 343 346 347 349 349 346 341 337 333 329 324 319 318 318 319 321 322 323 324 326 329 334 340 341 344 347 341 338 333 331 326 319 312 300 288 274 264 256 253 249 242 239 233 234 227 207 206 206 222 225 228 233 216 221 241 225 216 230 239 245 248 247 243 244 246 251 255 255 258 262 265 268 266 264 264 264 264 263 263 267 272 269
344 344 342 342 342 342 343 345 347 349 349 347 342 339 336 331 327 324 323 323 325 327 327 329 330 334 339 343 348 349 350 349 345 344 341 341 337 331 328 320 311 292 276 260 253 248 247 245 239 244 237 223 218 202 216 222 215 220 203 217 242 225 224 233 239 246 248 248 246 246 246 247 252 252 257 264 265 267 269 268 264 262 260 260 259 259 264 266
344 344 343 342 342 342 342 344 346 348 349 347 343 341 338 333 331 328 327 329 331 332 332 334 336 342 346 348 353 354 353 352 350 350 350 351 349 344 344 339 333 321 300 277 263 255 251 250 244 234 218 220 223 216 231 226 209 200 194 225 236 222 229 235 241 245 245 247 245 245 246 244 249 253 255 262 264 263 266 266 263 261 260 261 262 262 264 265
344 344 344 344 344 343 342 344 346 348 348 346 343 342 339 336 333 331 332 335 336 336 336 337 343 348 349 352 353 353 353 355 356 356 358 357 358 359 359 0 355 347 332 313 294 272 255 250 241 227 226 228 223 224 237 233 213 199 196 221 222 223 232 235 240 244 242 246 246 243 248 248 250 252 252 257 262 261 260 262 260 259 261 263 264 265 267 267
345 344 344 345 344 343 342 343 345 347 347 345 342 341 340 337 335 335 337 340 340 339 338 341 347 349 351 353 352 353 355 360 3 1 2 1 2 6 6 12 7 1 354 344 334 301 266 253 243 236 243 241 236 242 251 242 217 209 214 220 227 232 236 234 232 241 236 236 243 239 243 247 246 250 251 252 258 261 261 261 258 256 258 261 264 265 265 263
344 344 344 344 344 343 342 342 345 346 346 344 341 341 340 338 336 337 340 343 341 340 341 342 347 350 353 351 350 355 358 4 7 3 4 2 360 3 9 17 11 8 4 357 355 332 290 262 250 242 247 244 250 261 264 250 224 220 226 221 231 237 235 231 221 231 229 226 240 237 238 246 243 247 252 252 256 260 262 262 262 262 262 262 265 264 258 256
342 342 342 343 343 343 342 342 343 345 346 343 340 340 340 338 338 339 341 343 341 342 342 343 347 349 348 346 350 358 359 3 8 3 4 4 1 2 9 17 14 13 11 7 3 340 313 279 261 249 247 241 252 260 261 267 235 221 230 221 211 194 215 233 226 227 223 231 244 237 234 245 242 242 247 252 254 256 260 262 263 266 266 263 264 262 257 262
340 341 341 342 343 343 343 342 342 344 345 343 340 340 340 338 338 339 341 342 342 343 342 343 344 341 344 347 354 2 360 0 6 4 6 7 4 4 10 17 14 15 17 17 12 355 341 305 284 274 269 249 254 255 259 280 229 201 222 208 187 177 211 235 234 226 214 226 245 232 229 238 238 236 240 250 253 254 257 257 260 264 264 260 258 259 260 267
338 339 341 342 342 343 344 341 341 343 344 343 341 338 338 338 337 339 341 342 342 343 341 343 340 336 347 350 355 4 3 3 5 3 8 9 4 6 7 12 14 14 15 18 23 18 4 342 316 309 327 305 256 250 261 277 197 191 195 187 184 185 216 231 238 233 221 228 244 238 235 240 240 236 236 245 250 255 258 261 266 266 267 264 257 262 269 273
337 338 339 341 342 343 344 342 340 342 343 343 340 337 338 336 336 338 341 342 342 343 342 340 337 339 350 354 355 2 4 6 7 4 8 6 3 5 358 3 21 19 11 9 22 29 11 5 36 43 11 13 38 308 289 257 184 199 188 182 188 188 210 232 245 240 225 229 241 242 240 241 241 237 235 240 247 253 258 264 267 264 266 271 266 267 275 279
335 336 338 340 341 342 345 342 340 341 342 342 339 337 336 334 336 338 340 343 340 341 344 339 339 342 350 357 356 360 3 4 8 6 5 5 4 2 354 356 10 8 10 5 2 14 13 11 33 40 28 20 327 308 304 18 116 215 224 200 184 171 185 192 203 239 237 239 240 238 241 245 246 244 241 242 246 251 255 259 261 260 259 265 269 265 263 270
333 334 336 339 340 341 344 342 339 340 341 340 338 336 334 333 339 340 340 342 337 341 350 345 341 344 348 352 352 359 2 356 0 8 10 12 360 346 349 354 5 14 16 12 0 359 6 7 7 27 35 357 303 315 309 282 317 11 260 200 184 178 200 202 212 249 252 252 242 238 244 250 250 248 245 242 243 246 251 251 249 253 257 261 265 265 259 260
330 332 333 336 339 340 343 342 339 338 339 339 336 334 333 334 338 339 341 342 338 342 347 344 338 341 344 344 350 356 354 344 349 10 20 16 354 341 354 2 16 33 18 14 2 333 351 354 323 337 241 267 273 294 272 253 257 3 48 181 185 220 222 215 236 243 225 163 239 257 246 238 236 236 236 234 235 237 240 239 239 246 254 261 264 270 272 267
326 329 331 333 336 337 340 341 338 337 339 337 334 333 333 335 335 336 341 341 339 341 337 336 334 332 337 340 347 350 344 340 353 14 20 15 358 354 6 355 357 7 254 350 329 308 310 314 335 341 280 267 242 250 229 240 262 307 34 152 178 340 269 213 246 233 209 172 196 240 219 196 205 207 210 214 218 224 229 235 244 249 251 259 265 272 277 278
322 325 328 330 332 334 336 337 337 336 336 337 334 332 333 333 331 333 338 336 335 339 332 328 323 318 330 338 338 343 343 344 359 15 17 9 356 355 9 15 326 302 290 259 273 298 309 295 335 335 305 266 232 243 180 171 260 289 344 336 329 279 224 253 284 207 223 182 188 214 195 190 190 192 206 212 220 229 239 244 250 256 257 263 268 271 276 283
318 321 324 326 328 330 332 333 334 334 334 335 333 331 330 329 329 329 331 333 328 332 333 323 312 308 317 328 334 347 344 344 358 9 8 359 352 353 3 14 306 271 335 286 256 296 319 308 319 313 275 234 221 213 126 115 227 253 255 265 242 223 230 275 260 217 239 201 196 220 216 212 196 203 224 227 238 244 248 253 257 264 266 269 270 271 277 282
315 317 320 322 324 326 327 328 330 331 331 332 332 330 328 326 326 324 326 330 319 318 333 322 306 304 306 318 333 345 341 345 357 356 355 353 353 353 349 0 18 29 324 276 272 313 318 316 305 279 247 226 211 156 140 133 157 235 227 199 222 233 244 254 230 255 252 226 241 243 260 250 213 218 243 239 245 250 253 258 262 267 270 271 272 274 277 279
311 314 317 319 321 322 323 324 325 327 328 329 331 329 326 324 322 320 321 322 306 302 322 317 299 298 300 309 319 332 335 345 351 344 347 351 357 355 339 13 37 34 354 275 306 338 315 323 298 265 247 222 222 201 170 158 174 210 214 204 211 215 213 214 223 249 245 234 249 244 268 263 232 241 267 256 250 255 262 266 265 267 268 268 270 273 275 276
309 311 313 317 318 318 320 320 320 323 324 326 328 327 326 323 318 316 314 311 300 299 313 314 295 293 297 297 304 321 333 342 344 341 346 351 2 5 350 40 44 6 10 359 348 340 320 326 301 276 255 223 242 228 187 188 198 188 192 217 220 207 223 233 235 241 250 261 262 261 270 263 255 268 275 266 262 268 275 276 270 267 264 263 268 271 272 274
307 309 312 315 315 315 316 317 318 320 322 323 325 325 325 322 317 313 309 307 303 299 307 310 297 289 290 290 301 315 328 336 339 342 348 351 2 7 11 51 61 353 20 12 350 353 344 340 306 270 240 224 230 223 196 201 222 245 214 222 229 225 233 245 235 230 254 257 252 265 270 264 264 269 269 267 274 284 287 286 276 269 266 264 267 273 275 276
306 308 310 312 313 313 312 313 316 318 320 322 324 325 323 321 318 310 303 301 298 296 302 306 304 294 283 285 297 301 312 325 334 341 344 348 358 10 29 51 57 51 48 25 17 24 8 359 332 252 245 262 242 232 233 214 227 268 238 218 228 231 235 251 247 243 260 261 264 274 270 268 263 264 273 281 288 288 290 293 279 262 265 271 272 280 282 282
305 307 309 310 311 310 309 311 314 317 319 320 322 324 321 320 316 305 297 291 288 290 294 295 296 292 280 280 285 284 295 310 323 336 337 339 352 8 36 59 63 51 49 40 36 29 15 11 3 283 257 293 286 253 250 225 239 273 239 217 227 225 229 244 246 253 266 273 280 274 263 265 268 271 279 283 283 281 286 297 280 257 264 275 278 285 285 284
304 307 307 308 308 307 307 308 313 316 318 318 321 324 323 320 313 299 291 286 284 286 287 287 290 291 285 281 283 283 288 296 306 323 329 333 344 355 18 36 54 36 44 51 46 28 19 20 14 358 285 276 256 248 232 212 230 257 234 230 241 239 239 248 250 256 266 272 276 274 269 276 282 285 284 281 281 280 283 295 288 277 278 271 271 286 284 283
303 305 306 305 304 304 303 304 311 315 317 317 320 323 324 319 309 298 291 287 283 280 280 283 290 294 288 278 276 276 278 280 290 308 320 333 341 343 8 18 6 2 50 49 42 33 27 23 22 23 346 240 193 175 165 198 225 238 234 252 276 270 251 258 270 266 264 269 281 291 286 281 283 287 290 289 285 283 287 296 294 289 281 269 279 295 288 284
302 304 304 302 300 300 299 300 308 315 316 316 319 322 321 313 308 299 287 283 281 275 273 276 284 291 285 276 276 279 276 271 278 295 307 321 325 318 335 18 11 22 37 5 10 34 33 26 28 30 20 182 186 168 142 180 212 212 215 243 263 263 246 250 275 280 278 283 292 293 288 287 285 287 296 297 295 297 300 302 297 290 281 278 293 302 292 286
301 301 301 300 298 296 295 296 306 314 315 314 317 318 313 308 308 299 286 282 279 274 271 272 281 288 281 278 283 287 279 269 269 278 289 301 303 303 318 314 287 311 316 293 289 12 27 31 31 19 46 160 199 202 184 188 201 206 218 239 254 263 260 263 278 282 281 288 294 293 294 292 285 293 310 309 310 312 307 305 302 298 295 293 301 304 294 288
298 299 300 299 296 294 292 293 303 312 313 313 313 311 308 307 306 301 294 286 276 272 271 270 277 285 283 282 281 278 274 271 266 263 274 288 284 286 296 279 266 262 276 292 326 96 32 28 27 95 169 181 201 210 215 212 208 216 222 237 262 274 275 279 289 289 285 291 301 307 314 307 296 308 317 308 309 311 306 308 310 307 303 300 303 301 293 289
295 297 298 296 294 292 290 291 301 310 311 311 309 306 306 304 302 304 301 292 280 271 269 269 271 279 287 284 278 271 265 264 261 256 261 263 259 268 278 272 260 236 242 269 267 226 214 185 50 122 153 184 190 193 205 209 214 225 224 236 265 279 279 282 295 303 300 306 316 321 325 315 303 303 305 305 312 312 308 312 313 311 307 303 305 301 293 290
292 294 295 293 291 290 288 289 299 307 308 307 304 299 301 301 303 308 309 308 299 278 263 261 264 272 281 278 278 277 262 258 259 253 257 257 254 263 270 265 257 240 238 252 247 241 238 217 188 170 173 199 188 181 197 208 210 216 222 239 273 291 292 289 295 302 302 306 312 313 313 306 299 301 305 310 318 315 311 314 315 315 315 314 314 308 299 294
288 292 293 291 288 286 285 288 297 304 304 302 296 291 297 300 303 309 315 322 323 303 266 256 260 265 262 257 269 278 272 268 269 256 254 256 253 258 260 257 256 248 242 246 244 241 242 240 230 197 197 212 195 183 190 203 213 223 236 247 256 275 283 284 289 299 301 299 298 299 303 301 296 300 309 315 322 322 318 318 317 316 322 327 326 317 309 303
285 290 291 290 287 282 282 287 294 299 299 296 289 288 299 303 301 308 318 325 330 324 288 263 258 257 254 247 252 261 263 271 274 257 251 258 259 258 258 254 253 253 248 245 244 243 238 240 250 243 224 222 213 205 205 209 220 229 238 248 248 253 265 273 280 287 290 290 290 291 295 295 291 296 309 316 320 321 318 318 319 317 321 329 333 327 320 316
281 287 290 289 285 281 281 286 291 294 294 287 283 287 297 301 303 307 313 318 321 319 303 279 262 253 253 252 250 254 258 264 268 256 254 268 266 253 251 254 255 259 258 250 245 245 239 233 242 251 250 245 230 224 226 228 236 240 237 240 247 251 254 259 269 278 281 284 287 286 284 286 288 295 307 310 310 313 315 318 320 316 315 321 330 331 326 323
278 284 290 287 283 282 283 285 287 290 289 280 276 283 288 294 302 305 306 310 312 311 306 293 275 258 254 255 255 257 257 254 257 254 255 270 268 256 254 259 260 261 261 258 253 251 248 241 239 240 245 251 247 248 253 250 251 255 247 243 252 258 258 260 266 270 270 273 280 283 285 284 284 293 304 305 306 311 314 317 315 311 310 312 321 327 325 322
273 278 285 283 283 287 285 284 286 287 285 276 273 278 283 291 300 303 302 305 308 308 305 298 285 266 255 253 254 258 255 248 252 256 255 260 263 264 266 261 258 257 258 260 260 257 254 250 244 238 238 245 252 261 272 268 261 257 254 255 260 259 258 261 264 266 268 275 281 285 289 287 284 290 296 295 299 306 311 314 311 307 306 306 311 319 321 318
269 271 274 277 282 287 286 284 285 283 281 275 272 275 281 289 298 301 299 298 303 306 304 297 289 275 260 253 249 251 254 253 254 255 255 258 263 269 269 260 258 257 257 261 266 267 262 255 250 247 244 247 251 257 262 260 255 253 254 256 258 257 257 261 265 268 272 276 278 281 286 286 286 289 287 285 291 299 304 308 308 306 303 302 304 308 312 314
265 265 267 272 278 282 284 283 281 278 277 276 275 278 283 289 296 299 297 295 299 304 303 295 289 283 267 256 250 250 256 261 258 256 259 265 270 272 265 260 262 260 259 262 266 266 264 261 260 259 255 253 257 261 259 255 252 254 257 258 258 259 259 261 265 269 272 275 274 276 279 281 285 288 285 283 288 294 299 303 305 305 305 302 301 301 304 307
264 263 263 268 274 278 280 279 278 276 276 276 276 279 283 287 292 294 293 293 299 304 302 292 290 290 276 262 257 254 254 258 261 264 268 271 274 273 268 265 267 266 266 266 264 263 267 268 267 264 262 260 258 259 259 260 259 257 257 260 261 261 261 262 264 268 272 274 273 275 276 276 280 284 285 285 286 290 295 298 300 303 304 303 302 302 301 301
264 264 265 267 271 273 274 274 272 272 274 276 276 278 283 287 290 292 291 292 298 302 298 289 287 289 283 269 258 252 250 254 260 263 266 269 273 277 276 271 270 270 269 266 265 265 268 269 268 266 266 265 262 260 261 263 265 260 257 260 262 262 262 262 263 267 271 271 272 277 278 278 281 285 288 289 288 289 292 294 297 299 299 299 299 300 299 298
264 265 266 267 268 269 269 269 267 267 271 274 275 277 281 284 288 290 289 291 295 297 293 287 282 282 283 275 259 249 249 254 259 263 265 266 271 277 277 268 267 269 269 268 269 270 268 269 271 270 267 266 265 266 267 265 265 264 264 264 264 263 264 265 267 269 271 272 274 277 277 278 281 284 286 288 290 293 293 292 293 295 295 295 295 297 298 298
265 265 265 265 264 263 262 262 263 265 268 271 273 275 279 283 286 286 285 289 293 292 287 284 279 277 278 277 265 254 252 253 257 261 265 268 272 277 277 271 266 269 272 272 271 269 268 269 271 271 270 269 266 267 269 269 267 266 266 266 266 266 267 269 271 271 271 274 279 278 276 277 280 281 282 284 288 291 292 292 293 293 292 291 291 292 294 294
270 266 264 262 261 260 258 257 259 261 264 269 272 275 277 281 284 282 280 282 285 285 283 280 278 275 274 275 271 264 260 260 260 261 262 265 270 276 278 276 273 273 276 277 272 269 269 269 268 269 269 269 268 267 268 269 269 267 267 268 268 269 270 270 272 274 274 277 280 278 276 278 281 281 281 282 284 287 290 291 293 292 290 288 286 287 289 289
277 270 265 261 259 258 256 256 257 259 263 267 269 272 275 275 276 277 276 274 276 280 281 278 276 275 273 274 274 273 273 271 267 266 266 265 268 272 274 278 281 279 275 276 276 275 274 270 268 269 268 267 268 268 267 268 270 271 272 272 271 271 272 273 275 275 276 278 279 277 277 281 282 280 280 281 283 286 288 288 289 290 289 286 285 285 286 287
279 276 270 263 259 256 255 255 256 258 262 265 266 269 271 268 264 264 266 268 270 275 276 276 275 273 271 273 273 274 277 277 275 274 276 273 271 272 274 278 284 283 279 278 280 280 278 275 273 272 270 269 268 269 270 270 270 272 274 272 270 271 274 275 275 276 277 278 277 277 280 282 279 278 280 283 285 286 287 286 286 287 286 286 286 285 285 287
277 277 274 269 263 258 254 253 254 257 260 263 265 264 262 260 258 255 257 263 268 269 268 271 272 271 271 272 273 274 275 276 277 277 278 277 276 278 280 280 282 284 286 285 283 283 282 280 279 277 275 274 270 270 272 271 272 277 276 269 269 274 275 274 275 277 278 278 278 280 283 283 279 280 282 283 285 288 287 286 286 285 284 284 283 282 283 285
Height
5828 5827 5825 5824 5823 5822 5820 5819 5817 5816 5814 5813 5812 5810 5809 5809 5808 5807 5807 5806 5805 5804 5803 5802 5801 5800 5800 5799 5798 5797 5797 5796 5796 5796 5796 5795 5795 5795 5795 5796 5796 5797 5797 5798 5799 5799 5800 5801 5802 5803 5804 5805 5806 5807 5808 5809 5810 5811 5812 5813 5815 5817 5818 5820 5822 5824 5824 5827 5827 5820 5821 5823 5822 5819 5814 5813 5811 5814 5819 5821 5821 5818 5818 5819 5819 5818 5816 5816
5828 5827 5825 5824 5823 5821 5820 5818 5817 5815 5814 5812 5811 5810 5809 5808 5807 5806 5806 5805 5804 5803 5802 5801 5800 5799 5798 5797 5796 5796 5795 5795 5795 5794 5794 5793 5793 5793 5793 5794 5794 5794 5795 5796 5797 5797 5798 5799 5800 5801 5802 5803 5804 5805 5806 5807 5808 5809 5811 5812 5814 5815 5817 5819 5823 5826 5824 5826 5824 5817 5817 5819 5819 5816 5810 5810 5810 5813 5818 5820 5820 5817 5816 5818 5817 5817 5816 5815
5828 5827 5825 5824 5822 5821 5819 5818 5816 5815 5813 5812 5810 5809 5808 5807 5807 5806 5805 5804 5803 5802 5801 5800 5798 5797 5796 5795 5795 5794 5793 5793 5792 5792 5792 5791 5791 5791 5791 5791 5792 5792 5793 5794 5794 5795 5796 5797 5798 5799 5800 5801 5802 5803 5804 5805 5806 5808 5809 5810 5813 5815 5817 5818 5822 5825 5821 5821 5820 5814 5815 5816 5816 5813 5807 5808 5810 5812 5818 5818 5818 5817 5815 5816 5816 5817 5816 5815
5828 5826 5825 5823 5822 5820 5819 5817 5816 5814 5813 5811 5810 5809 5808 5807 5806 5805 5804 5803 5802 5800 5799 5798 5797 5796 5795 5794 5793 5792 5792 5791 5790 5790 5789 5789 5788 5788 5789 5789 5790 5790 5790 5791 5792 5792 5794 5795 5796 5797 5798 5799 5800 5801 5802 5803 5804 5806 5807 5809 5812 5814 5815 5817 5819 5820 5816 5815 5814 5811 5815 5815 5810 5808 5805 5807 5810 5812 5816 5816 5816 5815 5814 5814 5815 5816 5816 5814
5827 5826 5824 5823 5821 5820 5818 5817 5815 5814 5812 5810 5809 5808 5807 5806 5805 5804 5803 5802 5800 5799 5798 5797 5795 5794 5793 5792 5791 5790 5790 5789 5788 5787 5787 5786 5786 5786 5786 5787 5787 5788 5788 5789 5789 5790 5791 5792 5794 5795 5796 5797 5798 5799 5800 5801 5803 5804 5805 5808 5809 5809 5812 5816 5815 5813 5811 5810 5811 5812 5815 5811 5803 5804 5805 5807 5809 5811 5814 5814 5814 5814 5813 5813 5813 5814 5814 5813
5827 5826 5824 5822 5821 5819 5818 5816 5814 5813 5811 5809 5808 5807 5806 5805 5804 5803 5801 5800 5799 5798 5797 5795 5794 5793 5792 5790 5789 5788 5788 5787 5786 5786 5785 5784 5784 5784 5784 5785 5785 5785 5786 5786 5787 5788 5788 5790 5791 5792 5794 5795 5796 5797 5799 5799 5800 5801 5804 5806 5806 5806 5809 5810 5808 5808 5807 5808 5812 5811 5810 5806 5801 5803 5805 5806 5808 5809 5812 5813 5812 5812 5811 5811 5812 5812 5812 5811
5827 5825 5823 5822 5820 5819 5817 5815 5814 5812 5810 5809 5807 5806 5805 5804 5802 5801 5800 5799 5798 5797 5795 5794 5793 5792 5790 5789 5788 5787 5787 5786 5785 5784 5783 5783 5782 5782 5782 5782 5783 5783 5784 5784 5785 5785 5787 5788 5788 5790 5792 5793 5795 5795 5796 5797 5797 5800 5802 5803 5803 5805 5808 5805 5802 5803 5804 5808 5810 5808 5807 5805 5801 5801 5804 5806 5806 5807 5810 5811 5811 5811 5810 5810 5809 5809 5808 5807
5826 5824 5823 5821 5820 5818 5816 5815 5813 5811 5809 5808 5806 5805 5804 5802 5801 5800 5799 5798 5797 5795 5794 5793 5792 5791 5789 5788 5787 5786 5786 5785 5784 5783 5782 5782 5781 5780 5780 5780 5780 5781 5781 5782 5782 5783 5784 5785 5786 5788 5789 5792 5793 5794 5795 5793 5794 5797 5800 5802 5800 5802 5806 5801 5797 5800 5804 5808 5807 5807 5807 5804 5801 5801 5802 5803 5803 5805 5807 5809 5809 5809 5808 5808 5808 5807 5806 5804
5825 5824 5822 5821 5819 5817 5816 5814 5812 5810 5809 5807 5805 5804 5803 5801 5800 5799 5798 5797 5796 5794 5793 5792 5791 5790 5789 5788 5787 5786 5785 5784 5783 5782 5782 5781 5780 5779 5779 5778 5778 5779 5779 5780 5780 5781 5781 5782 5784 5785 5786 5788 5788 5792 5793 5790 5793 5796 5798 5799 5796 5800 5803 5796 5795 5799 5803 5806 5805 5806 5806 5802 5800 5799 5799 5799 5800 5802 5804 5806 5806 5806 5806 5806 5806 5806 5804 5802
5825 5823 5822 5820 5818 5817 5815 5813 5811 5810 5808 5806 5804 5803 5802 5801 5800 5798 5797 5796 5795 5794 5792 5791 5790 5789 5788 5787 5787 5786 5785 5784 5783 5782 5781 5780 5779 5779 5778 5777 5777 5777 5777 5778 5778 5779 5779 5780 5782 5783 5785 5785 5784 5788 5788 5786 5791 5793 5795 5796 5793 5798 5797 5792 5796 5799 5802 5804 5803 5804 5802 5800 5799 5797 5798 5797 5798 5800 5802 5804 5804 5804 5803 5803 5804 5804 5803 5800
5824 5823 5821 5819 5818 5816 5814 5813 5811 5809 5807 5805 5804 5802 5801 5800 5799 5798 5796 5795 5794 5793 5792 5791 5790 5789 5788 5787 5786 5785 5784 5783 5782 5782 5781 5780 5779 5778 5778 5777 5776 5776 5776 5776 5776 5777 5778 5779 5781 5783 5783 5782 5783 5785 5783 5784 5787 5789 5794 5794 5791 5793 5791 5792 5797 5797 5800 5801 5800 5801 5798 5798 5798 5797 5798 5795 5795 5798 5800 5802 5803 5802 5801 5801 5801 5801 5801 5798
5823 5822 5820 5819 5817 5815 5814 5812 5810 5808 5806 5805 5803 5802 5801 5800 5799 5797 5796 5795 5793 5792 5791 5790 5789 5788 5788 5787 5786 5785 5784 5783 5782 5781 5781 5780 5779 5778 5777 5777 5776 5776 5775 5775 5775 5776 5776 5777 5779 5780 5779 5779 5781 5781 5780 5782 5785 5787 5790 5789 5787 5788 5788 5793 5795 5793 5798 5798 5797 5799 5797 5797 5797 5795 5796 5795 5794 5796 5797 5800 5801 5802 5800 5799 5799 5799 5798 5797
5823 5821 5820 5818 5817 5815 5813 5811 5809 5808 5806 5804 5803 5802 5801 5799 5798 5797 5796 5794 5793 5792 5791 5790 5789 5788 5787 5787 5786 5785 5784 5783 5782 5781 5780 5780 5779 5778 5777 5777 5776 5775 5775 5775 5775 5775 5775 5776 5777 5777 5777 5778 5778 5778 5779 5780 5782 5782 5782 5784 5785 5787 5788 5792 5792 5790 5794 5796 5793 5795 5796 5795 5794 5792 5793 5794 5793 5794 5795 5797 5799 5801 5800 5799 5797 5797 5796 5796
5822 5821 5819 5818 5816 5814 5812 5811 5809 5807 5805 5804 5803 5801 5800 5799 5798 5797 5795 5794 5793 5792 5791 5790 5789 5788 5787 5787 5786 5785 5784 5782 5782 5781 5780 5780 5779 5778 5777 5776 5776 5775 5775 5774 5774 5774 5774 5775 5775 5776 5776 5777 5776 5777 5778 5777 5779 5780 5779 5783 5785 5787 5788 5788 5788 5787 5791 5793 5790 5793 5795 5792 5792 5792 5790 5791 5792 5792 5793 5794 5795 5797 5797 5797 5796 5794 5794 5795
5821 5820 5819 5817 5816 5814 5812 5810 5808 5807 5805 5804 5802 5801 5800 5799 5798 5796 5795 5794 5793 5791 5790 5789 5788 5788 5787 5787 5786 5784 5783 5782 5782 5781 5780 5779 5779 5778 5777 5776 5776 5775 5775 5774 5774 5774 5774 5774 5774 5775 5775 5775 5775 5776 5776 5775 5777 5779 5779 5782 5784 5787 5787 5785 5785 5786 5789 5790 5787 5791 5793 5789 5790 5792 5790 5790 5790 5791 5792 5793 5794 5794 5795 5795 5793 5791 5791 5792
5821 5819 5818 5817 5815 5813 5812 5810 5808 5806 5805 5803 5802 5801 5800 5799 5797 5796 5795 5793 5792 5791 5790 5789 5788 5788 5787 5786 5785 5784 5784 5783 5782 5781 5780 5779 5778 5778 5777 5776 5776 5775 5775 5774 5774 5773 5773 5774 5774 5774 5774 5774 5774 5774 5774 5774 5775 5776 5777 5780 5783 5784 5784 5782 5782 5785 5788 5786 5783 5787 5788 5786 5787 5790 5791 5789 5788 5789 5790 5791 5793 5794 5793 5793 5792 5791 5789 5790
5820 5819 5817 5816 5814 5813 5811 5809 5808 5806 5804 5803 5801 5800 5799 5798 5797 5796 5794 5793 5792 5791 5790 5789 5788 5788 5787 5786 5785 5784 5784 5783 5782 5781 5780 5779 5778 5777 5776 5776 5775 5775 5775 5774 5774 5773 5773 5774 5773 5773 5773 5772 5773 5773 5773 5773 5774 5774 5775 5778 5780 5780 5781 5781 5781 5782 5785 5783 5781 5785 5787 5784 5785 5789 5791 5789 5788 5788 5787 5788 5791 5792 5792 5790 5790 5789 5788 5788
5819 5818 5817 5815 5814 5812 5810 5809 5807 5805 5804 5802 5801 5800 5799 5798 5797 5796 5794 5793 5792 5791 5790 5789 5788 5787 5786 5786 5785 5785 5784 5783 5782 5781 5780 5779 5778 5777 5776 5776 5775 5775 5775 5774 5774 5773 5773 5773 5773 5773 5773 5772 5773 5774 5773 5773 5774 5773 5774 5776 5776 5777 5779 5780 5780 5780 5782 5782 5781 5784 5785 5781 5783 5789 5790 5789 5790 5789 5787 5787 5788 5789 5789 5788 5787 5788 5788 5787
5818 5817 5816 5814 5813 5811 5810 5808 5806 5805 5803 5802 5800 5799 5798 5797 5796 5795 5794 5792 5792 5791 5790 5789 5788 5787 5786 5786 5785 5785 5784 5783 5782 5781 5781 5779 5778 5777 5776 5775 5775 5774 5774 5774 5773 5773 5773 5773 5773 5773 5773 5774 5775 5775 5774 5774 5774 5774 5774 5774 5773 5775 5777 5778 5779 5779 5779 5780 5781 5782 5781 5780 5783 5788 5788 5789 5789 5789 5789 5788 5787 5787 5787 5786 5786 5787 5788 5787
5818 5816 5815 5814 5812 5811 5809 5807 5806 5804 5803 5801 5800 5798 5797 5796 5796 5795 5793 5792 5791 5790 5789 5788 5788 5787 5787 5786 5785 5785 5784 5783 5783 5782 5781 5779 5778 5777 5776 5775 5774 5774 5774 5774 5773 5773 5773 5774 5774 5773 5774 5775 5776 5776 5775 5773 5774 5775 5773 5771 5774 5775 5775 5777 5778 5779 5779 5779 5779 5780 5779 5780 5784 5785 5786 5787 5787 5788 5788 5788 5787 5786 5786 5785 5785 5786 5786 5787
5817 5815 5814 5813 5811 5810 5808 5807 5805 5804 5802 5801 5799 5798 5796 5795 5795 5794 5793 5792 5791 5789 5789 5788 5787 5787 5787 5786 5786 5785 5784 5784 5783 5782 5780 5779 5778 5777 5776 5775 5775 5775 5775 5775 5774 5774 5774 5774 5774 5774 5774 5775 5776 5776 5775 5774 5774 5774 5773 5774 5776 5776 5776 5777 5778 5778 5779 5778 5778 5779 5779 5780 5782 5783 5784 5784 5785 5787 5788 5787 5787 5786 5785 5785 5784 5784 5784 5785
5815 5814 5813 5812 5810 5809 5808 5806 5805 5803 5802 5800 5799 5797 5796 5794 5794 5793 5792 5791 5790 5789 5788 5788 5787 5787 5787 5786 5786 5785 5785 5784 5783 5782 5780 5779 5778 5777 5776 5776 5777 5776 5776 5775 5775 5774 5774 5774 5774 5774 5774 5775 5775 5775 5774 5774 5774 5774 5775 5775 5776 5776 5776 5777 5778 5777 5778 5778 5778 5779 5779 5780 5781 5782 5783 5783 5785 5786 5787 5787 5786 5786 5786 5785 5784 5783 5782 5782
5814 5813 5812 5811 5809 5808 5807 5805 5804 5803 5801 5800 5798 5797 5795 5794 5793 5793 5792 5791 5790 5789 5788 5788 5787 5787 5787 5786 5786 5785 5784 5784 5783 5781 5780 5779 5779 5777 5776 5777 5778 5777 5776 5775 5774 5774 5774 5774 5774 5774 5774 5774 5774 5774 5774 5774 5774 5773 5774 5775 5776 5777 5778 5777 5777 5778 5778 5778 5778 5779 5779 5780 5781 5782 5783 5784 5785 5786 5786 5787 5786 5786 5785 5785 5784 5783 5781 5780
5813 5812 5811 5810 5808 5807 5806 5804 5803 5802 5801 5799 5798 5797 5795 5794 5793 5792 5791 5790 5790 5789 5788 5788 5787 5787 5787 5787 5786 5785 5784 5784 5783 5781 5781 5780 5779 5777 5776 5777 5777 5776 5776 5775 5774 5774 5774 5774 5773 5773 5773 5774 5774 5774 5774 5775 5776 5776 5776 5777 5778 5779 5778 5778 5777 5778 5778 5778 5779 5779 5780 5780 5781 5782 5784 5784 5785 5785 5786 5786 5786 5786 5785 5785 5784 5783 5782 5780
5811 5810 5810 5808 5807 5806 5805 5803 5802 5801 5800 5799 5797 5796 5795 5794 5792 5792 5791 5790 5789 5789 5788 5787 5787 5787 5787 5786 5786 5785 5785 5784 5783 5782 5781 5780 5779 5777 5776 5776 5776 5776 5777 5776 5774 5774 5773 5773 5773 5773 5773 5773 5774 5774 5774 5775 5776 5777 5777 5778 5779 5778 5779 5779 5778 5778 5778 5778 5779 5779 5779 5780 5780 5781 5783 5784 5784 5785 5785 5786 5786 5785 5785 5785 5784 5783 5782 5781
5810 5809 5808 5807 5806 5805 5803 5802 5801 5800 5799 5798 5797 5796 5794 5793 5792 5791 5790 5789 5788 5788 5787 5787 5786 5786 5786 5786 5786 5785 5785 5784 5783 5783 5782 5780 5779 5777 5776 5776 5775 5775 5776 5775 5774 5774 5773 5773 5773 5772 5772 5773 5773 5774 5774 5774 5775 5776 5777 5777 5778 5778 5779 5779 5778 5778 5778 5779 5779 5779 5780 5779 5779 5780 5782 5783 5783 5784 5784 5785 5785 5784 5784 5784 5783 5782 5782 5781
5808 5807 5807 5806 5805 5803 5802 5801 5800 5799 5798 5797 5796 5795 5793 5792 5791 5790 5789 5789 5788 5787 5786 5786 5786 5786 5785 5786 5785 5785 5784 5784 5783 5783 5782 5781 5779 5778 5776 5776 5776 5776 5775 5775 5774 5774 5773 5773 5772 5773 5773 5773 5773 5773 5774 5774 5774 5775 5776 5776 5777 5778 5778 5778 5778 5778 5778 5779 5779 5779 5780 5779 5779 5779 5780 5781 5782 5782 5782 5783 5782 5782 5781 5781 5781 5781 5781 5780
5806 5805 5805 5804 5803 5802 5801 5800 5799 5797 5796 5796 5795 5794 5792 5791 5790 5789 5789 5788 5787 5787 5786 5785 5785 5785 5785 5785 5785 5784 5784 5783 5783 5783 5782 5780 5779 5778 5777 5776 5776 5776 5775 5775 5774 5774 5773 5772 5772 5773 5773 5773 5773 5773 5773 5774 5774 5775 5775 5775 5776 5777 5777 5777 5778 5778 5779 5779 5778 5779 5779 5779 5779 5779 5778 5779 5779 5779 5780 5780 5780 5779 5779 5779 5779 5778 5778 5778
5805 5804 5803 5802 5802 5801 5799 5798 5797 5796 5795 5794 5793 5792 5791 5790 5789 5788 5787 5787 5787 5786 5785 5784 5784 5784 5784 5784 5784 5784 5783 5783 5783 5782 5781 5780 5779 5778 5777 5776 5776 5775 5775 5774 5774 5773 5773 5772 5772 5772 5773 5773 5772 5772 5773 5774 5774 5774 5774 5775 5776 5776 5777 5777 5777 5778 5778 5778 5778 5779 5778 5778 5778 5778 5776 5777 5778 5777 5778 5778 5777 5776 5776 5776 5776 5776 5776 5775
5802 5802 5801 5800 5800 5799 5798 5797 5796 5795 5794 5793 5792 5791 5790 5788 5787 5787 5786 5786 5786 5785 5785 5784 5783 5783 5783 5783 5783 5783 5783 5782 5782 5782 5781 5780 5779 5778 5777 5777 5776 5775 5775 5774 5773 5773 5773 5773 5773 5772 5772 5773 5772 5772 5773 5773 5774 5774 5775 5775 5776 5776 5777 5777 5777 5777 5777 5777 5778 5778 5777 5776 5777 5777 5776 5776 5776 5776 5776 5776 5774 5774 5774 5773 5773 5774 5773 5773
5800 5800 5799 5798 5798 5797 5796 5796 5795 5793 5792 5791 5791 5790 5788 5787 5786 5785 5785 5785 5785 5784 5784 5783 5783 5783 5782 5782 5782 5782 5782 5782 5782 5781 5781 5780 5779 5778 5777 5777 5776 5775 5775 5774 5774 5773 5773 5773 5773 5772 5772 5772 5772 5773 5773 5774 5774 5775 5775 5775 5776 5776 5776 5776 5776 5777 5776 5776 5777 5776 5775 5775 5775 5776 5775 5775 5775 5775 5775 5775 5773 5773 5772 5770 5771 5771 5771 5770
5798 5798 5797 5796 5796 5795 5794 5794 5793 5792 5791 5790 5789 5788 5787 5786 5785 5784 5784 5784 5784 5783 5783 5782 5782 5782 5782 5781 5781 5781 5782 5782 5781 5781 5781 5780 5779 5777 5777 5777 5776 5775 5775 5774 5774 5774 5773 5773 5772 5772 5772 5772 5773 5773 5773 5774 5774 5774 5775 5775 5775 5776 5776 5776 5776 5776 5776 5775 5776 5776 5775 5775 5774 5773 5773 5773 5773 5774 5774 5773 5771 5771 5769 5767 5766 5768 5767 5766
5796 5795 5795 5794 5794 5794 5793 5792 5792 5791 5790 5788 5787 5786 5786 5785 5784 5783 5783 5782 5782 5782 5782 5781 5782 5781 5781 5780 5780 5781 5781 5781 5781 5781 5780 5780 5779 5778 5777 5777 5776 5776 5775 5774 5774 5774 5773 5773 5773 5772 5773 5773 5773 5773 5773 5773 5774 5774 5775 5775 5775 5775 5775 5775 5775 5776 5776 5776 5776 5775 5775 5775 5774 5773 5772 5771 5770 5770 5770 5770 5768 5768 5767 5764 5762 5763 5762 5762
5794 5793 5792 5792 5792 5792 5791 5791 5790 5789 5788 5787 5786 5785 5785 5784 5783 5783 5782 5781 5781 5781 5780 5780 5780 5781 5780 5780 5780 5780 5780 5780 5780 5780 5780 5779 5779 5778 5777 5777 5776 5776 5775 5774 5774 5774 5774 5773 5773 5773 5773 5773 5773 5773 5773 5773 5774 5774 5774 5774 5774 5774 5774 5774 5775 5775 5775 5775 5775 5774 5774 5774 5773 5772 5771 5770 5768 5766 5765 5766 5766 5764 5763 5761 5759 5759 5758 5758
5792 5791 5790 5790 5790 5790 5789 5789 5788 5787 5787 5786 5785 5784 5783 5783 5782 5782 5781 5780 5780 5779 5779 5779 5779 5780 5779 5779 5779 5779 5779 5779 5780 5779 5779 5779 5778 5777 5777 5777 5776 5776 5775 5775 5774 5774 5774 5773 5773 5773 5773 5773 5773 5773 5773 5773 5773 5773 5774 5774 5773 5773 5774 5774 5774 5774 5774 5774 5773 5772 5772 5771 5770 5771 5771 5770 5769 5767 5764 5763 5763 5761 5760 5758 5757 5756 5754 5755
5790 5789 5788 5788 5788 5788 5787 5787 5787 5786 5785 5784 5783 5782 5782 5782 5781 5780 5780 5779 5778 5778 5778 5778 5778 5779 5779 5778 5778 5778 5778 5778 5779 5779 5778 5778 5778 5777 5777 5776 5776 5776 5775 5775 5775 5774 5773 5773 5773 5773 5773 5773 5773 5773 5773 5773 5773 5773 5773 5773 5773 5773 5773 5773 5773 5773 5772 5772 5772 5771 5771 5770 5769 5769 5769 5769 5769 5767 5765 5763 5761 5760 5759 5756 5754 5753 5751 5751
5787 5787 5786 5786 5786 5786 5786 5785 5785 5784 5784 5783 5782 5782 5781 5781 5780 5779 5779 5777 5776 5776 5776 5777 5777 5778 5778 5777 5776 5777 5777 5777 5777 5778 5777 5777 5777 5776 5776 5776 5775 5775 5775 5775 5775 5774 5773 5773 5773 5773 5773 5773 5772 5772 5772 5772 5773 5773 5772 5772 5772 5772 5772 5772 5772 5771 5771 5771 5771 5771 5771 5771 5768 5767 5768 5768 5767 5766 5764 5762 5760 5759 5758 5755 5752 5750 5749 5748
5785 5785 5784 5784 5784 5784 5784 5784 5783 5783 5782 5782 5781 5781 5780 5780 5779 5778 5778 5777 5775 5774 5775 5775 5776 5777 5777 5776 5776 5776 5776 5776 5776 5777 5776 5775 5775 5775 5775 5775 5774 5774 5775 5774 5774 5774 5774 5773 5773 5773 5773 5773 5773 5772 5772 5772 5772 5772 5772 5772 5772 5771 5771 5771 5771 5771 5771 5771 5771 5770 5771 5770 5767 5765 5765 5765 5765 5764 5762 5761 5759 5757 5756 5754 5751 5749 5747 5746
5783 5783 5782 5782 5782 5782 5782 5782 5781 5781 5781 5780 5780 5779 5779 5779 5778 5778 5777 5776 5775 5774 5774 5774 5775 5775 5775 5775 5775 5775 5775 5775 5775 5776 5774 5774 5774 5774 5773 5773 5773 5773 5773 5774 5773 5773 5773 5773 5773 5773 5773 5772 5772 5772 5772 5772 5772 5771 5771 5771 5771 5771 5771 5771 5771 5770 5770 5770 5769 5769 5770 5768 5765 5764 5764 5763 5763 5763 5762 5760 5758 5756 5754 5752 5751 5749 5746 5745
5781 5781 5781 5780 5780 5780 5780 5780 5780 5779 5779 5779 5778 5778 5778 5777 5777 5777 5776 5775 5774 5773 5773 5773 5773 5773 5773 5773 5773 5773 5774 5774 5774 5774 5774 5773 5773 5772 5772 5772 5772 5773 5773 5772 5772 5772 5773 5772 5772 5772 5772 5772 5772 5772 5771 5771 5771 5770 5771 5770 5770 5770 5770 5770 5770 5770 5769 5769 5768 5768 5768 5767 5764 5763 5763 5762 5761 5761 5760 5758 5756 5754 5752 5751 5750 5748 5746 5745
5779 5779 5779 5779 5778 5778 5778 5778 5778 5778 5778 5778 5777 5777 5777 5776 5776 5776 5775 5774 5773 5772 5772 5771 5771 5771 5771 5771 5771 5771 5772 5772 5772 5772 5773 5773 5771 5770 5771 5771 5772 5772 5772 5771 5771 5771 5772 5771 5771 5771 5771 5771 5771 5770 5770 5770 5770 5770 5770 5770 5769 5769 5769 5769 5769 5768 5768 5767 5767 5766 5766 5765 5763 5762 5761 5760 5760 5759 5758 5757 5755 5753 5751 5750 5749 5748 5746 5745
5777 5777 5778 5777 5776 5776 5776 5776 5776 5776 5776 5776 5776 5775 5775 5775 5774 5774 5773 5773 5772 5771 5770 5770 5769 5769 5769 5770 5770 5770 5770 5770 5770 5770 5771 5771 5768 5768 5770 5771 5770 5770 5770 5770 5770 5771 5770 5770 5770 5770 5770 5770 5770 5770 5770 5769 5769 5769 5768 5768 5768 5768 5768 5768 5768 5767 5766 5767 5766 5765 5765 5763 5761 5761 5761 5759 5758 5757 5756 5755 5754 5752 5750 5748 5747 5746 5745 5744
5775 5775 5776 5775 5775 5775 5775 5775 5775 5775 5774 5774 5774 5774 5774 5774 5773 5772 5772 5771 5771 5770 5769 5768 5768 5767 5767 5767 5768 5768 5768 5768 5768 5768 5769 5768 5766 5767 5769 5769 5769 5769 5769 5769 5769 5770 5769 5769 5769 5769 5769 5769 5768 5768 5768 5768 5768 5767 5767 5767 5767 5767 5767 5766 5766 5766 5765 5766 5765 5763 5763 5761 5759 5760 5760 5758 5757 5756 5755 5754 5753 5751 5750 5748 5746 5745 5744 5743
5772 5773 5774 5774 5773 5773 5773 5773 5773 5773 5772 5772 5772 5772 5772 5772 5771 5770 5769 5769 5769 5768 5767 5767 5766 5766 5766 5765 5765 5765 5766 5767 5767 5767 5767 5766 5765 5766 5767 5767 5767 5767 5767 5768 5768 5768 5767 5767 5768 5768 5768 5768 5767 5767 5766 5765 5766 5766 5766 5766 5766 5765 5765 5765 5765 5764 5764 5764 5763 5762 5762 5760 5757 5757 5757 5756 5755 5754 5754 5753 5752 5750 5749 5747 5745 5744 5743 5741
5770 5770 5771 5771 5771 5771 5771 5771 5771 5770 5770 5770 5770 5770 5770 5770 5770 5769 5768 5767 5767 5766 5766 5765 5764 5764 5764 5763 5763 5764 5765 5765 5765 5765 5765 5764 5763 5764 5765 5766 5765 5765 5766 5766 5766 5766 5766 5766 5767 5767 5766 5767 5766 5765 5764 5763 5764 5764 5764 5764 5764 5764 5763 5763 5763 5762 5762 5762 5761 5760 5760 5758 5756 5755 5754 5753 5753 5753 5752 5751 5750 5749 5747 5746 5744 5743 5741 5740
5767 5767 5768 5769 5769 5769 5769 5769 5769 5768 5768 5768 5768 5768 5768 5768 5768 5767 5766 5765 5765 5764 5764 5764 5763 5763 5762 5762 5761 5762 5762 5763 5763 5764 5764 5763 5761 5762 5764 5764 5763 5763 5764 5764 5764 5764 5764 5764 5764 5765 5765 5765 5765 5763 5763 5762 5762 5762 5762 5762 5762 5761 5761 5761 5760 5760 5760 5759 5759 5759 5758 5756 5755 5754 5752 5751 5751 5751 5750 5749 5748 5747 5745 5744 5743 5741 5740 5738
5764 5764 5765 5766 5766 5766 5767 5767 5766 5766 5765 5766 5766 5766 5766 5765 5765 5765 5764 5763 5763 5763 5762 5762 5762 5761 5761 5760 5760 5760 5760 5761 5761 5761 5761 5761 5759 5760 5761 5762 5761 5761 5761 5761 5761 5762 5762 5762 5762 5762 5762 5763 5762 5762 5761 5761 5761 5761 5760 5760 5760 5759 5759 5758 5758 5758 5757 5756 5757 5757 5756 5754 5753 5752 5750 5748 5747 5748 5747 5746 5746 5745 5743 5742 5741 5739 5738 5737
5762 5762 5763 5763 5763 5763 5764 5764 5764 5764 5764 5763 5764 5764 5764 5763 5763 5763 5763 5762 5761 5761 5760 5760 5760 5760 5759 5759 5759 5758 5758 5758 5759 5759 5759 5758 5757 5757 5758 5758 5758 5758 5758 5758 5759 5759 5759 5759 5759 5759 5759 5760 5760 5759 5758 5758 5758 5758 5757 5758 5757 5757 5756 5756 5755 5756 5755 5753 5754 5755 5753 5752 5752 5750 5749 5747 5745 5745 5744 5743 5743 5742 5741 5739 5738 5737 5736 5734
5760 5760 5760 5759 5760 5760 5761 5761 5762 5762 5762 5761 5762 5762 5762 5762 5761 5760 5760 5760 5759 5759 5759 5758 5758 5758 5758 5758 5757 5757 5757 5757 5757 5756 5756 5756 5755 5755 5755 5755 5755 5756 5755 5755 5755 5755 5755 5756 5756 5755 5756 5756 5757 5756 5756 5755 5754 5755 5755 5755 5755 5754 5753 5753 5753 5753 5752 5751 5751 5751 5749 5749 5749 5748 5746 5745 5744 5743 5742 5741 5740 5739 5738 5737 5736 5734 5733 5732
5758 5757 5757 5757 5757 5757 5758 5759 5759 5759 5759 5759 5759 5759 5760 5759 5759 5758 5758 5758 5757 5757 5757 5756 5756 5756 5756 5756 5756 5756 5755 5755 5755 5754 5754 5754 5754 5753 5753 5752 5752 5754 5753 5752 5751 5752 5752 5752 5752 5752 5752 5753 5754 5753 5752 5752 5751 5752 5753 5752 5751 5751 5750 5750 5750 5749 5749 5748 5748 5748 5747 5747 5747 5744 5743 5742 5741 5740 5740 5739 5737 5737 5736 5734 5733 5732 5730 5728
5756 5755 5755 5754 5755 5755 5755 5756 5756 5757 5756 5756 5757 5757 5757 5756 5756 5756 5756 5755 5755 5755 5755 5754 5754 5754 5754 5754 5754 5754 5754 5753 5753 5752 5752 5752 5752 5751 5751 5750 5750 5750 5750 5750 5749 5749 5749 5749 5749 5749 5748 5750 5750 5749 5749 5748 5747 5749 5750 5749 5748 5748 5747 5747 5747 5746 5746 5745 5745 5744 5744 5744 5743 5741 5740 5739 5738 5737 5737 5736 5735 5734 5733 5732 5731 5730 5728 5726
5754 5754 5753 5752 5753 5753 5753 5753 5754 5754 5754 5754 5754 5754 5754 5753 5754 5754 5754 5753 5754 5753 5752 5752 5752 5752 5752 5752 5752 5752 5752 5751 5751 5751 5750 5750 5750 5749 5749 5749 5748 5747 5747 5747 5747 5746 5746 5746 5746 5745 5744 5746 5747 5746 5745 5743 5743 5746 5747 5745 5745 5745 5744 5744 5744 5743 5743 5742 5742 5742 5741 5741 5740 5738 5738 5736 5735 5734 5734 5733 5732 5731 5730 5730 5729 5727 5726 5725